Terug naar catalogus

CZ-6A DEB

ActiefPO
NORAD 60671·DEBRIS·🇨🇳 China

Gelanceerd Aug 6, 2024 vanaf Taiyuan Satellite Launch Center

Loading…

Volgende Passages (komende 24 uur)

TLE

VersSource: Space-Track

Epoch: Sep 14, 2026, 11:09 UTC

1 60671U 24140BY  26257.46527566  .00000261  00000-0  15626-3 0  9996
2 60671  89.0407 271.8022 0203237 315.4524  43.0466 13.94927664106802

Volg CZ-6A DEB in realtime met AllMySat

Download on the App Store